STARLINK-34537, 64778

Orbit data source: Space-Track

STARLINK-34537, 64778 is a payload satellite owned by SpaceX/Seattle (US) in LEO that was launched on Tue, 08 Jul 2025 UTC via an FALCON 9 launch vehicle from the Air Force Eastern Test Range (AFETR). Payload-class satellites include a variety of spacecraft equipped with specific instruments for various scientific and technological missions. These include communications satellites like Starlink; space stations such as the ISS; scientific satellites like the Hubble; Earth observation satellites from companies like Planet Labs, Umbra, and HawkEye 360; GPS; miniature CubeSats for education and research; and military/defense satellites.

Loading next visibility...
Identifier
64778, 2025-147Z
Orbit
LEO
Country
Flag of USUS
Related business
Manufacturer
SpaceX/Seattle
Mission
Operational spacecraft
Bus & Motor
STARLINK V2MO, Unknown motor
Mass
575 kg wet, ~530 kg dry
Launch date (UTC)
2025-07-08 (2 months ago)
Launch vehicle
FALCON 9
Launch site
Air Force Eastern Test Range (AFETR)
Object type
Payload
Rocket body
Debris
Shape & HBR
Unknown
Radar Cross Section
Large (>1 m²)

Expand to show TLE details & history
Last TLE update: 15 hours ago

TLE from 15 hours ago
0 STARLINK-34537
1 64778U 25147Z   25242.92945005  .00354946  00000-0  19193-2 0  9996
2 64778  53.1532  40.1829 0000566 114.4663 245.6417 15.78571866  9708
Epoch: 2025-08-30T22:18Z
TLE epoch observation values (Epoch: 2025-08-30T22:18:24.484Z)
Latitude
-0.00007°
Longitude
86.22414°
Altitude
335.561 km
Speed
7.708 km/s
True Right ascension
02h 40m 43s
True Declination
0° 00' 00"
Sunlit
Object was in full shadow at epoch
Visualization orbit readout
Latitude
Unknown
Longitude
Unknown
Altitude
Unknown
Speed
Unknown
Apparent Right ascension
Unknown
Apparent Declination
Unknown
Sunlit
N/A
Visualization observer readout
Local Sidereal Time
04:43:24
Azimuth
Unknown
Elevation
Unknown
Doppler factor
Unknown
Orbital elements
Apogee altitude
335.129 km
Perigee altitude
334.369 km
Semi-major axis
6,712.886 km
Eccentricity
0.00006
Inclination
53.1532°
RAAN
40.1829°
Arg. of periapsis
114.4663°
True anomaly
245.63579°
Mean anomaly
245.6417°
Eccentric anomaly
245.63875°
Mean motion
3.9462 °/min
Orbital period
91.23 mins
BSTAR
0.0019193
Loading maneuver chart data...
Computing Atmospheric mass density...
Loading historical data...
Loading historical data...
Loading historical data...
Loading historical data...
Loading historical data...
Loading historical data...
Loading historical data...

Documentation

Showing up to 5 results
|